Weather History for Ashtabula, OH

Change the Weather History Date:

Monday, August 12, 2013

  Actual Average (KYNG) Record (KYNG)
Temperature  
Mean Temperature 65 °F 70 °F  
Max Temperature 72 °F 80 °F 94 °F (1943)
Min Temperature 59 °F 59 °F 42 °F (1967)
Degree Days  
Heating Degree Days 0 1  
Month to date heating degree days 7  
Since 1 June heating degree days 89  
Since 1 July heating degree days 20  
Cooling Degree Days 0 5  
Month to date cooling degree days 68  
Year to date cooling degree days 402  
Since 1 June cooling degree days 363  
Growing Degree Days 15 (Base 50)    
Moisture  
Dew Point 60 °F    
Average Humidity 84    
Maximum Humidity 90    
Minimum Humidity 73    
Precipitation  
Precipitation 0.07 in 0.09 in 0.87 in (1974)
Month to date precipitation 1.29  
Year to date precipitation 24.27  
Snow  
Snow 0.00 in 0.00 in - ()
Month to date snowfall 0.0  
Since 1 June snowfall 0.0  
Since 1 July snowfall 0.0  
Snow Depth -    
Sea Level Pressure  
Sea Level Pressure 30.01 in    
Wind  
Wind Speed 2 mph (South)    
Max Wind Speed 10 mph    
Max Gust Speed -    
Visibility 10 miles    
Events Rain    
T = Trace of Precipitation, MM = Missing Value Source: NWS Daily Summary

Daily Weather History Graph

Daily Weather History Graph

Search for Another Location

Airport:

Trip Planner

Search our weather history database for the weather conditions in past years. The results will help you decide how hot, cold, wet, or windy it might be!

Date:

Astronomy

Aug. 12, 2013 Rise Set
Actual Time 6:28 AM EDT 8:26 PM EDT
Civil Twilight 5:57 AM EDT 8:56 PM EDT
Nautical Twilight 5:20 AM EDT 9:33 PM EDT
Astronomical Twilight 4:40 AM EDT 10:13 PM EDT
Moon 12:23 PM EDT (8/12) 11:12 PM EDT (8/12)
Length of Visible Light 14h 58m
Length of Day
13h 58m
Waxing Crescent, 31% of the Moon is Illuminated
Aug 12
Waxing Crescent
Aug 14
First Quarter
Aug 20
Full
Aug 28
Last Quarter
Sep 5
New

Hourly Weather History & Observations

Time (EDT) Temp. Dew Point Humidity Pressure Visibility Wind Dir Wind Speed Gust Speed Precip Events Conditions
12:53 AM 59.0 °F 55.9 °F 90% 30.08 in 10.0 mi Calm Calm - N/A   Clear
1:53 AM 61.0 °F 57.0 °F 87% 30.07 in 10.0 mi Calm Calm - N/A   Overcast
2:53 AM 61.0 °F 57.9 °F 90% 30.06 in 10.0 mi Calm Calm - N/A   Overcast
3:53 AM 62.1 °F 57.0 °F 84% 30.06 in 10.0 mi Calm Calm - N/A   Overcast
4:53 AM 62.1 °F 57.0 °F 84% 30.05 in 10.0 mi Calm Calm - N/A   Overcast
5:53 AM 62.1 °F 57.0 °F 84% 30.05 in 10.0 mi Calm Calm - N/A   Overcast
6:53 AM 62.1 °F 55.9 °F 80% 30.05 in 10.0 mi Calm Calm - N/A   Overcast
7:53 AM 63.0 °F 57.9 °F 84% 30.06 in 10.0 mi Calm Calm - N/A   Overcast
8:53 AM 66.0 °F 59.0 °F 78% 30.05 in 10.0 mi Calm Calm - N/A   Overcast
9:53 AM 69.1 °F 60.1 °F 73% 30.04 in 10.0 mi SSW 4.6 mph - N/A   Overcast
10:53 AM 71.1 °F 62.1 °F 73% 30.05 in 10.0 mi WSW 5.8 mph - N/A   Overcast
11:53 AM 68.0 °F 60.1 °F 76% 30.06 in 5.0 mi West 10.4 mph - 0.03 in Rain Light Rain
12:53 PM 68.0 °F 64.0 °F 87% 30.05 in 10.0 mi SW 4.6 mph - 0.00 in   Overcast
1:53 PM 66.9 °F 61.0 °F 81% 30.03 in 7.0 mi SSW 8.1 mph - 0.02 in Rain Light Rain
2:53 PM 66.0 °F 61.0 °F 84% 30.01 in 10.0 mi SSW 9.2 mph - 0.01 in Rain Light Rain
3:53 PM 66.9 °F 62.1 °F 84% 30.00 in 10.0 mi Calm Calm - 0.00 in   Overcast
4:53 PM 66.9 °F 63.0 °F 87% 29.99 in 10.0 mi Calm Calm - 0.01 in   Overcast
5:53 PM 68.0 °F 63.0 °F 84% 29.97 in 9.0 mi SE 3.5 mph - N/A   Overcast
6:53 PM 69.1 °F 63.0 °F 81% 29.95 in 10.0 mi SSW 3.5 mph - N/A   Scattered Clouds
7:53 PM 68.0 °F 62.1 °F 81% 29.92 in 10.0 mi SE 3.5 mph - N/A   Mostly Cloudy
8:53 PM 66.0 °F 63.0 °F 90% 29.91 in 10.0 mi SE 3.5 mph - N/A   Mostly Cloudy
9:53 PM 66.9 °F 64.0 °F 90% 29.90 in 8.0 mi SE 4.6 mph - N/A   Scattered Clouds
10:53 PM 68.0 °F 64.0 °F 87% 29.87 in 9.0 mi SSE 6.9 mph - N/A   Partly Cloudy
11:53 PM 68.0 °F 64.0 °F 87% 29.85 in 9.0 mi SE 5.8 mph - N/A   Overcast